Flag Weather past 2 weeks in Toamasina, Madagascar

Now
75 °F

Partly cloudy.


Feels Like: 74 °F
Forecast: 75 / 86 °F
Wind: 2 mph from Southwest

Location: Tamatave

Current Time: Nov 24, 2014 at 1:34:01 AM

Latest Report: Nov 24, 2014 at 1:00 AM


Visibility: N/A

Pressure: 29.98 "Hg

Humidity: 94%

Dew point: 73 °F

Location of ToamasinaLocation

Historic Weather in Toamasina — Graph

°F

Toamasina temperature yesterday

Maximum temperature yesterday: 86 °F (at 10:00 AM)
Minimum temperature yesterday: 73 °F (at 5:00 AM)
Average temperature yesterday: 80 °F

Past Weeks' High & Low Weather Summary

 TemperatureHumidityPressure
High86 °F (Nov 9, 11:00 AM)100% (Nov 11, 3:00 AM)30.07 "Hg (Nov 11, 3:00 AM)
Low66 °F (Nov 20, 5:00 AM)55% (Nov 22, 12:00 PM)29.80 "Hg (Nov 20, 3:00 PM)
Average79 °F85%29.95 "Hg
* Reported Midnight between Nov 8 and Nov 9 — Midnight between Nov 23 and Nov 24, Toamasina, Weather by CustomWeather, © 2014

Note: Actual official high and low records may vary slightly from our data, if they occured in-between our weather recording intervals... More about our weather records

Advertising

Toamasina weather history for previous 24 hours

 ConditionsComfort  
Time TempWeatherWind HumidityBarometerVisibility
12:00 AM
Nov 24
77 °FPartly cloudy.2 mph89%29.98 "HgN/A
11:00 PM
Nov 23
79 °FPassing clouds.2 mph89%30.01 "HgN/A
10:00 PM79 °FPassing clouds.2 mph89%30.01 "HgN/A
9:00 PM79 °FPartly cloudy.5 mph89%30.01 "HgN/A
8:00 PM81 °FPassing clouds.5 mph84%29.98 "HgN/A
7:00 PM82 °FPassing clouds.7 mph74%29.98 "HgN/A
6:00 PM82 °FPassing clouds.7 mph79%29.98 "HgN/A
5:00 PM84 °FScattered clouds.9 mph74%29.95 "HgN/A
4:00 PM86 °FScattered clouds.9 mph70%29.95 "HgN/A
3:00 PM86 °FBroken clouds.9 mph75%29.95 "HgN/A
2:00 PM86 °FBroken clouds.5 mph70%29.95 "HgN/A
1:00 PM84 °FScattered showers. Broken clouds.7 mph79%29.98 "HgN/A
12:00 PM86 °FScattered showers. Broken clouds.7 mph62%29.98 "HgN/A
11:00 AM84 °FScattered showers. Broken clouds.7 mph62%30.01 "HgN/A
10:00 AM86 °FScattered showers. Broken clouds.5 mph62%30.01 "HgN/A
9:00 AM82 °FScattered showers. Broken clouds.7 mph79%N/AN/A
8:00 AM79 °FPartly sunny.7 mph89%30.01 "HgN/A
7:00 AM75 °FLight rain. Broken clouds.7 mph94%30.01 "Hg6 mi
6:00 AM75 °FBroken clouds.No wind94%29.98 "HgN/A
5:00 AM73 °FBroken clouds.No wind100%29.95 "HgN/A
4:00 AM75 °FLight rain. Partly cloudy.No wind94%29.95 "Hg4 mi
3:00 AM75 °FLight rain. Partly cloudy.No wind94%29.95 "Hg4 mi
2:00 AM75 °FPassing clouds.No wind100%29.98 "HgN/A
1:00 AM75 °FPassing clouds.No wind94%29.98 "HgN/A
Weather by CustomWeather, © 2014

See weather overviewHow to use our weather pages